This is the latest recevied weather packets stored in our database for station/object SQ9RHX-13. If no packets are shown the sender has not sent any weather packets the latest 10 day(s).
| Time | Temp. | Humidity | Pressure | Rain* | Wind** | Luminosity | Snow |
|---|---|---|---|---|---|---|---|
| 1777896603 | 27.78° C | 31% | 1016.2 hPa | 0 mm | - | 594 W/m² | - |
| 1777896303 | 27.22° C | 32% | 1016.2 hPa | 0 mm | - | 613 W/m² | - |
| 1777896003 | 27.78° C | 33% | 1016 hPa | 0 mm | - | 539 W/m² | - |
| 1777895702 | 27.78° C | 31% | 1016.2 hPa | 0 mm | - | 548 W/m² | - |
| 1777895403 | 27.22° C | 32% | 1016.3 hPa | 0 mm | - | 482 W/m² | - |
| 1777895105 | 27.22° C | 31% | 1016.2 hPa | 0 mm | - | 645 W/m² | - |
| 1777894802 | 27.78° C | 31% | 1016.3 hPa | 0 mm | - | 427 W/m² | - |
| 1777894503 | 27.22° C | 32% | 1016.3 hPa | 0 mm | - | 694 W/m² | - |
| 1777894203 | 27.22° C | 32% | 1016.4 hPa | 0 mm | - | 687 W/m² | - |
| 1777893905 | 26.67° C | 33% | 1016.4 hPa | 0 mm | - | 565 W/m² | - |
| 1777893604 | 27.22° C | 33% | 1016.4 hPa | 0 mm | - | 601 W/m² | - |
| 1777893303 | 26.67° C | 32% | 1016.6 hPa | 0 mm | - | 607 W/m² | - |
| 1777893003 | 26.67° C | 32% | 1016.6 hPa | 0 mm | - | 672 W/m² | - |
| 1777892703 | 26.67° C | 33% | 1016.7 hPa | 0 mm | - | 683 W/m² | - |
| 1777892402 | 25.56° C | 33% | 1016.7 hPa | 0 mm | - | 650 W/m² | - |
| 1777892103 | 26.11° C | 32% | 1016.6 hPa | 0 mm | - | 508 W/m² | - |
| 1777891803 | 26.11° C | 35% | 1016.8 hPa | 0 mm | - | 508 W/m² | - |
| 1777891503 | 25.56° C | 33% | 1016.9 hPa | 0 mm | - | 545 W/m² | - |
| 1777891204 | 26.11° C | 33% | 1016.9 hPa | 0 mm | - | 487 W/m² | - |
| 1777890903 | 26.11° C | 32% | 1016.9 hPa | 0 mm | - | 612 W/m² | - |
| 1777890602 | 26.11° C | 33% | 1017 hPa | 0 mm | - | 602 W/m² | - |
| 1777890304 | 25.56° C | 33% | 1016.9 hPa | 0 mm | - | 580 W/m² | - |
| 1777890004 | 25.56° C | 34% | 1017.2 hPa | 0 mm | - | 696 W/m² | - |
| 1777889703 | 25° C | 35% | 1017.2 hPa | 0 mm | - | 638 W/m² | - |
| 1777889403 | 25° C | 34% | 1017.2 hPa | 0 mm | - | 486 W/m² | - |
* Rain latest hour (hover to see other rain measurements)
** Current wind speed in m/s (hover to see current wind gust speed)